Radiation Dose at Monitoring Post of Fukushima Daini Nuclear Power Station
Date,Time,MP-1(microSv/h),MP-2(microSv/h),MP-3(microSv/h),MP-4(microSv/h),MP-5(microSv/h),MP-6(microSv/h),MP-7(microSv/h),Wind Direction,Wind Velocity(m/s),Rain
2018/12/05,00:00,0.249,0.193,0.306,0.296,0.282,0.157,0.095,northwest,5.7,No
2018/12/05,00:10,0.248,0.192,0.309,0.298,0.279,0.157,0.096,northwest,5.1,No
2018/12/05,00:20,0.249,0.193,0.308,0.297,0.281,0.158,0.096,northwest,5.1,No
2018/12/05,00:30,0.248,0.192,0.307,0.299,0.279,0.156,0.095,north-northwest,3.3,No
2018/12/05,00:40,0.249,0.192,0.308,0.296,0.280,0.157,0.095,west-northwest,4.8,No
2018/12/05,00:50,0.247,0.193,0.305,0.297,0.279,0.156,0.095,west-northwest,7.9,No
2018/12/05,01:00,0.249,0.192,0.308,0.296,0.279,0.157,0.095,west-northwest,12.3,No
2018/12/05,01:10,0.248,0.192,0.306,0.297,0.281,0.156,0.095,west-northwest,10.4,No
2018/12/05,01:20,0.250,0.193,0.309,0.296,0.280,0.157,0.096,northwest,7.8,No
2018/12/05,01:30,0.249,0.193,0.308,0.299,0.282,0.157,0.095,northwest,6.9,No
2018/12/05,01:40,0.250,0.193,0.310,0.297,0.281,0.157,0.096,northwest,8.3,No
2018/12/05,01:50,0.248,0.193,0.309,0.297,0.283,0.157,0.095,northwest,9.2,No
2018/12/05,02:00,0.250,0.193,0.310,0.299,0.280,0.157,0.096,west-northwest,9.6,No
2018/12/05,02:10,0.249,0.193,0.310,0.298,0.282,0.158,0.096,northwest,10.4,No
2018/12/05,02:20,0.251,0.194,0.312,0.297,0.281,0.158,0.096,north-northwest,13.6,No
2018/12/05,02:30,0.250,0.192,0.310,0.300,0.281,0.158,0.096,north-northwest,13.4,No
2018/12/05,02:40,0.252,0.195,0.312,0.297,0.281,0.159,0.096,northwest,12.6,No
2018/12/05,02:50,0.250,0.193,0.312,0.300,0.283,0.158,0.096,northwest,11.7,No
2018/12/05,03:00,0.252,0.193,0.310,0.298,0.280,0.158,0.097,northwest,11.7,No
2018/12/05,03:10,0.251,0.195,0.312,0.299,0.282,0.157,0.096,northwest,11.7,No
2018/12/05,03:20,0.252,0.194,0.311,0.299,0.281,0.158,0.096,northwest,9.5,No
2018/12/05,03:30,0.249,0.194,0.312,0.299,0.282,0.157,0.096,northwest,8.3,No
2018/12/05,03:40,0.251,0.194,0.310,0.298,0.282,0.158,0.095,northwest,8.2,No
2018/12/05,03:50,0.251,0.194,0.312,0.299,0.284,0.157,0.097,north-northwest,9.3,No
2018/12/05,04:00,0.251,0.194,0.311,0.298,0.283,0.157,0.096,north-northwest,9.8,No
2018/12/05,04:10,0.251,0.195,0.313,0.299,0.283,0.158,0.096,northwest,10.3,No
2018/12/05,04:20,0.250,0.196,0.310,0.299,0.282,0.158,0.096,northwest,10.3,No
2018/12/05,04:30,0.252,0.194,0.311,0.300,0.280,0.158,0.096,northwest,9.8,No
2018/12/05,04:40,0.252,0.194,0.310,0.299,0.284,0.157,0.096,north-northwest,10.6,No
2018/12/05,04:50,0.251,0.194,0.310,0.298,0.281,0.157,0.096,north-northwest,10.6,No
2018/12/05,05:00,0.251,0.195,0.312,0.300,0.283,0.158,0.096,north-northwest,10.0,No
2018/12/05,05:10,0.252,0.195,0.311,0.299,0.281,0.157,0.095,north-northwest,10.1,No
2018/12/05,05:20,0.250,0.194,0.312,0.299,0.282,0.158,0.096,northwest,10.1,No
2018/12/05,05:30,0.251,0.195,0.309,0.298,0.281,0.158,0.095,northwest,9.5,No
2018/12/05,05:40,0.251,0.195,0.312,0.299,0.282,0.158,0.096,northwest,7.3,No
2018/12/05,05:50,0.251,0.194,0.311,0.298,0.283,0.157,0.096,northwest,8.1,No
2018/12/05,06:00,0.250,0.194,0.310,0.300,0.281,0.158,0.096,north-northwest,7.8,No
2018/12/05,06:10,0.249,0.194,0.311,0.298,0.282,0.157,0.096,northwest,8.1,No
2018/12/05,06:20,0.251,0.195,0.309,0.298,0.281,0.158,0.095,northwest,8.2,No
2018/12/05,06:30,0.250,0.194,0.312,0.299,0.283,0.157,0.095,north-northwest,8.1,No
2018/12/05,06:40,0.250,0.193,0.309,0.297,0.280,0.157,0.096,northwest,9.5,No
2018/12/05,06:50,0.251,0.194,0.312,0.299,0.283,0.157,0.096,north-northwest,10.1,No
2018/12/05,07:00,0.251,0.194,0.311,0.298,0.281,0.158,0.096,northwest,9.5,No
2018/12/05,07:10,0.250,0.194,0.310,0.298,0.282,0.158,0.096,north-northwest,6.1,No
2018/12/05,07:20,0.250,0.194,0.312,0.298,0.283,0.157,0.095,north-northwest,6.5,No
2018/12/05,07:30,0.252,0.195,0.310,0.300,0.282,0.158,0.096,north-northwest,7.6,No
2018/12/05,07:40,0.250,0.195,0.312,0.300,0.283,0.158,0.096,north-northwest,6.5,No
2018/12/05,07:50,0.251,0.195,0.310,0.297,0.281,0.158,0.095,north-northwest,5.2,No
2018/12/05,08:00,0.251,0.195,0.312,0.299,0.284,0.157,0.096,north,5.0,No
2018/12/05,08:10,0.251,0.194,0.310,0.298,0.280,0.158,0.097,north,3.1,No
2018/12/05,08:20,0.250,0.195,0.310,0.297,0.282,0.157,0.095,north-northwest,2.6,No
2018/12/05,08:30,0.250,0.194,0.311,0.299,0.281,0.157,0.096,northwest,3.0,No
2018/12/05,08:40,0.251,0.194,0.309,0.297,0.281,0.158,0.095,northwest,2.7,No
2018/12/05,08:50,0.250,0.194,0.311,0.300,0.282,0.157,0.096,north,3.3,No
2018/12/05,09:00,0.252,0.193,0.307,0.298,0.281,0.158,0.096,north,5.7,No
2018/12/05,09:10,0.250,0.194,0.311,0.300,0.281,0.157,0.096,north-northwest,4.2,No
2018/12/05,09:20,0.251,0.194,0.310,0.296,0.281,0.158,0.096,north-northwest,3.6,No
2018/12/05,09:30,0.250,0.194,0.310,0.299,0.283,0.157,0.095,north-northwest,4.2,No
2018/12/05,09:40,0.251,0.193,0.311,0.297,0.281,0.157,0.096,north-northwest,5.2,No
2018/12/05,09:50,0.251,0.194,0.309,0.298,0.282,0.158,0.096,north-northwest,6.7,No
2018/12/05,10:00,0.250,0.194,0.310,0.297,0.281,0.158,0.096,north-northwest,6.2,No
2018/12/05,10:10,0.248,0.194,0.309,0.299,0.280,0.157,0.097,north-northwest,5.5,No
2018/12/05,10:20,0.251,0.192,0.311,0.296,0.281,0.157,0.096,-,-,No
2018/12/05,10:30,0.249,0.194,0.309,0.300,0.280,0.157,0.095,-,-,No
2018/12/05,10:40,0.253,0.194,0.310,0.298,0.283,0.157,0.095,-,-,No
2018/12/05,10:50,0.250,0.194,0.309,0.297,0.279,0.157,0.096,-,-,No
2018/12/05,11:00,0.250,0.193,0.311,0.300,0.282,0.157,0.096,-,-,No
2018/12/05,11:10,0.248,0.194,0.310,0.298,0.281,0.156,0.096,-,-,No
2018/12/05,11:20,0.251,0.193,0.312,0.300,0.280,0.158,0.096,-,-,No
2018/12/05,11:30,0.250,0.195,0.310,0.298,0.285,0.157,0.096,-,-,No
2018/12/05,11:40,0.246,0.194,0.311,0.296,0.282,0.158,0.096,-,-,No
2018/12/05,11:50,0.251,0.193,0.309,0.300,0.278,0.158,0.097,-,-,No
2018/12/05,12:00,0.250,0.193,0.310,0.297,0.282,0.157,0.096,-,-,No
2018/12/05,12:10,0.251,0.194,0.309,0.298,0.281,0.159,0.096,-,-,No
2018/12/05,12:20,0.251,0.194,0.311,0.299,0.282,0.158,0.097,-,-,No
2018/12/05,12:30,0.250,0.194,0.308,0.298,0.284,0.158,0.096,-,-,No
2018/12/05,12:40,0.253,0.195,0.310,0.300,0.280,0.157,0.096,-,-,No
2018/12/05,12:50,0.251,0.193,0.310,0.299,0.283,0.158,0.096,-,-,No
2018/12/05,13:00,0.250,0.195,0.309,0.301,0.281,0.157,0.096,-,-,No
2018/12/05,13:10,0.252,0.194,0.310,0.299,0.282,0.159,0.095,-,-,No
2018/12/05,13:20,0.250,0.193,0.309,0.296,0.282,0.158,0.095,-,-,No
2018/12/05,13:30,0.248,0.194,0.312,0.298,0.279,0.158,0.096,-,-,No
2018/12/05,13:40,0.249,0.193,0.307,0.298,0.283,0.158,0.096,-,-,No
2018/12/05,13:50,0.248,0.194,0.312,0.298,0.279,0.157,0.096,-,-,No
2018/12/05,14:00,0.250,0.195,0.310,0.300,0.284,0.159,0.096,-,-,No
2018/12/05,14:10,0.248,0.195,0.312,0.298,0.283,0.158,0.096,-,-,No
2018/12/05,14:20,0.251,0.193,0.309,0.298,0.280,0.157,0.097,-,-,No
2018/12/05,14:30,0.251,0.194,0.312,0.300,0.283,0.157,0.095,north,4.2,No
2018/12/05,14:40,0.251,0.193,0.310,0.297,0.280,0.157,0.096,north-northwest,3.9,No
2018/12/05,14:50,0.250,0.194,0.310,0.300,0.283,0.157,0.096,north-northwest,5.4,No
2018/12/05,15:00,0.250,0.194,0.310,0.298,0.281,0.158,0.095,north-northwest,3.6,No
2018/12/05,15:10,0.249,0.195,0.311,0.301,0.284,0.158,0.096,northwest,4.3,No
2018/12/05,15:20,0.248,0.195,0.312,0.297,0.282,0.158,0.095,northwest,3.8,No
2018/12/05,15:30,0.249,0.193,0.310,0.301,0.284,0.158,0.096,northwest,7.1,No
2018/12/05,15:40,0.249,0.194,0.311,0.299,0.281,0.158,0.095,northwest,7.5,No
2018/12/05,15:50,0.251,0.193,0.311,0.300,0.283,0.157,0.096,northwest,9.2,No
2018/12/05,16:00,0.250,0.194,0.312,0.300,0.281,0.157,0.096,northwest,10.1,No
2018/12/05,16:10,0.249,0.195,0.312,0.300,0.282,0.158,0.096,northwest,9.0,No
2018/12/05,16:20,0.250,0.194,0.311,0.300,0.284,0.157,0.096,northwest,7.7,No
2018/12/05,16:30,0.249,0.194,0.312,0.298,0.281,0.157,0.096,northwest,8.5,No
2018/12/05,16:40,0.248,0.195,0.312,0.299,0.283,0.158,0.096,northwest,8.2,No
2018/12/05,16:50,0.250,0.194,0.312,0.299,0.283,0.157,0.097,northwest,10.4,No
2018/12/05,17:00,0.247,0.194,0.313,0.298,0.282,0.157,0.096,north-northwest,9.5,No
2018/12/05,17:10,0.249,0.194,0.312,0.299,0.282,0.158,0.096,north-northwest,7.6,No
2018/12/05,17:20,0.249,0.193,0.312,0.299,0.283,0.158,0.096,north-northwest,9.3,No
2018/12/05,17:30,0.249,0.194,0.312,0.298,0.282,0.157,0.097,north-northwest,6.8,No
2018/12/05,17:40,0.249,0.195,0.310,0.300,0.283,0.159,0.095,northwest,6.4,No
2018/12/05,17:50,0.250,0.195,0.312,0.299,0.282,0.157,0.096,northwest,5.5,No
2018/12/05,18:00,0.249,0.195,0.313,0.300,0.283,0.158,0.096,northwest,4.2,No
2018/12/05,18:10,0.250,0.194,0.312,0.301,0.284,0.159,0.096,north-northwest,4.3,No
2018/12/05,18:20,0.250,0.194,0.311,0.301,0.283,0.158,0.096,north,5.2,No
2018/12/05,18:30,0.249,0.195,0.312,0.298,0.282,0.158,0.096,north,5.5,No
2018/12/05,18:40,0.250,0.194,0.311,0.300,0.282,0.158,0.096,north,5.4,No
2018/12/05,18:50,0.249,0.194,0.311,0.300,0.282,0.158,0.096,north,5.7,No
2018/12/05,19:00,0.250,0.194,0.312,0.299,0.282,0.158,0.095,north,6.0,No
2018/12/05,19:10,0.249,0.195,0.311,0.300,0.282,0.158,0.096,north,5.7,No
2018/12/05,19:20,0.248,0.195,0.310,0.299,0.282,0.158,0.096,north,6.7,No
2018/12/05,19:30,0.249,0.194,0.311,0.299,0.281,0.158,0.095,north-northwest,6.2,No
2018/12/05,19:40,0.248,0.195,0.310,0.300,0.283,0.158,0.096,north,4.6,No
2018/12/05,19:50,0.248,0.194,0.310,0.300,0.284,0.159,0.096,north,5.5,No
2018/12/05,20:00,0.249,0.195,0.313,0.299,0.282,0.158,0.096,north,4.8,No
2018/12/05,20:10,0.248,0.195,0.311,0.300,0.282,0.157,0.097,north-northwest,5.7,No
2018/12/05,20:20,0.248,0.195,0.311,0.301,0.282,0.157,0.096,north-northwest,5.3,No
2018/12/05,20:30,0.249,0.194,0.311,0.300,0.280,0.158,0.096,north-northwest,5.2,No
2018/12/05,20:40,0.249,0.194,0.312,0.300,0.282,0.158,0.096,north-northwest,5.9,No
2018/12/05,20:50,0.249,0.194,0.310,0.301,0.283,0.158,0.097,north-northwest,5.1,No
2018/12/05,21:00,0.249,0.195,0.311,0.299,0.280,0.158,0.096,north-northwest,4.5,No
2018/12/05,21:10,0.249,0.195,0.312,0.300,0.282,0.158,0.096,north-northwest,4.5,No
2018/12/05,21:20,0.249,0.194,0.311,0.300,0.282,0.158,0.097,north-northwest,5.0,No
2018/12/05,21:30,0.250,0.193,0.312,0.300,0.282,0.157,0.096,north-northwest,5.1,No
2018/12/05,21:40,0.248,0.193,0.311,0.300,0.283,0.157,0.096,north,3.7,No
2018/12/05,21:50,0.251,0.195,0.311,0.300,0.281,0.158,0.096,north,3.2,No
2018/12/05,22:00,0.250,0.194,0.310,0.299,0.282,0.158,0.096,north,3.5,No
2018/12/05,22:10,0.248,0.194,0.311,0.299,0.283,0.157,0.096,north,4.1,No
2018/12/05,22:20,0.249,0.195,0.311,0.300,0.282,0.157,0.097,north-northwest,4.8,No
2018/12/05,22:30,0.247,0.194,0.310,0.299,0.281,0.157,0.096,north-northwest,5.3,No
2018/12/05,22:40,0.248,0.196,0.313,0.300,0.282,0.158,0.096,north-northwest,5.1,No
2018/12/05,22:50,0.249,0.195,0.311,0.301,0.281,0.158,0.096,north-northwest,5.2,No
2018/12/05,23:00,0.250,0.194,0.312,0.300,0.281,0.158,0.096,north-northwest,4.1,No
2018/12/05,23:10,0.248,0.194,0.311,0.299,0.285,0.158,0.096,north-northwest,4.5,No
2018/12/05,23:20,0.248,0.194,0.311,0.301,0.281,0.158,0.096,north-northwest,4.4,No
2018/12/05,23:30,0.250,0.194,0.311,0.299,0.284,0.157,0.097,north-northwest,4.2,No
2018/12/05,23:40,0.249,0.195,0.310,0.299,0.283,0.158,0.096,north-northwest,4.6,No
2018/12/05,23:50,0.250,0.193,0.311,0.300,0.281,0.158,0.096,north-northwest,4.5,No
